Flag for Pakistan Weather past 2 weeks in Sukkur, Sindh, Pakistan

Now
84 °F

Haze.


Feels Like: 86 °F
Forecast: 77 / 102 °F
Wind: 12 mph from Northeast

Location: Sukkur

Current Time: Mar 27, 2015 at 10:53:35 AM

Latest Report: Mar 27, 2015 at 10:00 AM


Visibility: 3 mi

Pressure: 29.95 "Hg

Humidity: 51%

Dew point: 64 °F

Location of SukkurLocation

Historic Weather in Sukkur — Graph

°F

Sukkur temperature yesterday

Maximum temperature yesterday: 95 °F (at 2:00 PM)
Minimum temperature yesterday: 77 °F (at 11:00 PM)
Average temperature yesterday: 89 °F

Past Weeks' High & Low Weather Summary

 TemperatureHumidityPressure
High102 °F (Mar 24, 2:00 PM)94% (Mar 14, 5:30 AM)30.15 "Hg (Mar 14, 5:30 AM)
Low55 °F (Mar 13, 6:00 AM)26% (Mar 12, 5:00 PM)29.68 "Hg (Mar 24, 5:00 PM)
Average76 °F63%29.89 "Hg
* Reported Mar 12 10:00 AM — Mar 27 10:00 AM, Sukkur, Weather by CustomWeather, © 2015

Note: Actual official high and low records may vary slightly from our data, if they occured in-between our weather recording intervals... More about our weather records

Advertising

Sukkur weather history for previous 24 hours

 ConditionsComfort  
Time TempWeatherWind HumidityBarometerVisibility
10:00 AM
Fri, Mar 27
84 °FHaze.12 mph51%29.95 "Hg3 mi
9:00 AM81 °FHaze.12 mph58%29.92 "Hg2 mi
8:00 AM75 °FHaze.7 mph69%29.92 "Hg2 mi
7:30 AM70 °FHaze.3 mph78%29.89 "Hg1 mi
7:00 AM70 °FHaze.3 mph78%29.89 "Hg1 mi
6:00 AM73 °FHaze.5 mph69%29.83 "Hg1 mi
5:00 AM73 °FHaze.5 mph69%29.83 "Hg1 mi
2:00 AM75 °FHaze.5 mph69%29.86 "Hg2 mi
1:30 AM75 °FHaze.5 mph69%29.86 "Hg2 mi
1:00 AM75 °FHaze.5 mph69%29.89 "Hg2 mi
12:30 AM75 °FHaze.5 mph69%29.89 "Hg2 mi
12:00 AM77 °FHaze.5 mph65%29.89 "Hg2 mi
11:30 PM
Thu, Mar 26
77 °FHaze.7 mph65%29.92 "Hg2 mi
11:00 PM77 °FHaze.7 mph65%29.92 "Hg2 mi
9:00 PM84 °FHaze.5 mph51%29.89 "HgN/A
8:30 PM86 °FHaze.5 mph46%29.86 "Hg2 mi
7:00 PM88 °FHaze.5 mph49%29.86 "Hg3 mi
6:30 PM91 °FHaze.5 mph41%29.83 "Hg3 mi
6:00 PM91 °FHaze.5 mph41%29.83 "Hg3 mi
4:30 PM93 °FHaze.9 mph36%29.83 "Hg3 mi
3:30 PM95 °FHaze.9 mph34%29.86 "Hg3 mi
3:00 PM95 °FHaze.9 mph34%29.86 "Hg3 mi
2:00 PM95 °FHaze.12 mph36%29.89 "Hg3 mi
1:00 PM93 °FHaze.12 mph36%29.89 "Hg3 mi
Weather by CustomWeather, © 2015

See weather overviewHow to use our weather pages